Location: Serin Observatory
(40.5200°N, 74.4500°W)
Time: 02:53:49
(UTC+00:00)

SL-8 R/B - Visible Passes

Search period start: 28 May 2017 00:00
Search period end: 07 June 2017 00:00
Orbit: 657 x 668 km, 48.4° (Epoch: 26 May)

Date Brightness Start Highest point End Pass type
(mag) Time Alt. Az. Time Alt. Az. Time Alt. Az.
28 May 4.2 05:32:00 56° NE 05:32:00 56° NE 05:35:48 10° ENE visible
28 May 5.1 07:09:56 12° WNW 07:14:00 35° N 07:18:24 10° NE visible
28 May 5.3 08:53:00 10° NW 08:57:24 35° N 09:01:48 10° ENE visible
29 May 5.8 04:23:03 17° ENE 04:23:03 17° ENE 04:24:15 10° ENE visible
29 May 4.5 06:00:58 38° WNW 06:02:15 47° NNW 06:06:53 10° NE visible
29 May 5.4 07:41:16 10° WNW 07:45:32 31° N 07:49:49 10° ENE visible
30 May 4.4 04:51:54 49° NE 04:51:54 49° NE 04:55:26 10° ENE visible
30 May 5.2 06:29:48 13° WNW 06:33:40 34° N 06:38:03 10° NE visible
30 May 5.3 08:12:40 10° NW 08:17:04 35° N 08:21:28 10° ENE visible
31 May 5.6 03:42:37 18° ENE 03:42:37 18° ENE 03:43:54 10° ENE visible
31 May 4.6 05:20:31 35° WNW 05:21:53 46° NNW 05:26:30 10° NE visible
31 May 5.5 07:00:57 10° WNW 07:05:12 31° N 07:09:29 10° ENE visible
31 May 4.7 08:43:48 10° NW 08:48:29 51° NNE 08:53:09 10° E visible
01 Jun 3.9 04:10:48 67° NNE 04:10:48 67° NNE 04:15:05 10° ENE visible
01 Jun 5.3 05:48:59 10° WNW 05:53:20 34° N 05:57:42 10° ENE visible
01 Jun 5.3 07:32:19 10° NW 07:36:44 36° NNE 07:41:10 10° E visible
02 Jun6.401:22:10E01:22:10E01:12:44Svisible
02 Jun 4.0 02:59:50 47° E 02:59:50 47° E 03:03:33 10° ENE visible
02 Jun 4.7 04:37:28 13° W 04:41:33 44° NNW 04:46:08 10° NE visible
02 Jun 5.5 06:20:37 10° WNW 06:24:53 31° N 06:29:09 10° ENE visible
02 Jun 4.6 08:03:26 10° NW 08:08:08 53° NNE 08:12:49 10° E visible
03 Jun 4.6 01:43:45 10° SSW 01:47:42 26° SE 01:51:39 10° E visible
03 Jun 3.8 03:25:10 10° WSW 03:29:55 72° NNW 03:34:42 10° ENE visible
03 Jun 5.3 05:08:40 10° WNW 05:13:00 33° N 05:17:21 10° ENE visible
03 Jun 5.2 06:51:57 10° NW 06:56:24 37° NNE 07:00:50 10° E visible
03 Jun 3.7 08:34:30 10° WNW 08:39:18 85° SSW 08:44:07 10° SE visible
04 Jun 3.6 02:13:49 10° SW 02:18:30 60° SE 02:23:12 10° ENE visible
04 Jun 4.8 03:56:40 10° W 04:01:12 43° NNW 04:05:46 10° NE visible
04 Jun 5.5 05:40:17 10° WNW 05:44:33 31° N 05:48:50 10° ENE visible
04 Jun 4.4 07:23:04 10° NW 07:27:47 55° NNE 07:32:28 10° ESE visible
05 Jun 4.5 01:03:15 10° SSW 01:07:18 28° SE 01:11:21 10° ENE visible
05 Jun 4.0 02:44:48 10° WSW 02:49:33 69° NNW 02:54:20 10° ENE visible
05 Jun 5.4 04:28:21 10° WNW 04:32:40 33° N 04:36:59 10° ENE visible
05 Jun 5.1 06:11:36 10° NW 06:16:03 37° NNE 06:20:31 10° E visible
05 Jun 3.6 07:54:09 10° WNW 07:58:56 81° SSW 08:03:43 10° SE visible
06 Jun 3.6 01:33:24 10° SW 01:38:07 64° SE 01:42:51 10° ENE visible
06 Jun 4.9 03:16:20 10° W 03:20:52 42° NNW 03:25:24 10° NE visible
06 Jun 5.5 04:59:57 10° WNW 05:04:13 31° N 05:08:30 10° ENE visible
06 Jun 4.3 06:42:42 10° NW 06:47:25 57° NNE 06:52:08 10° ESE visible
06 Jun 4.2 08:25:28 10° WNW 08:29:51 36° SW 08:34:13 10° SSE visible
